Date String (YYYY-MM-DD hh:mm:ss) UTC,Instrument flags,Ambient pressure (hPa),Sample flow (lpm),Bypass flow (lpm),Sample temperature (°C),Ambient temperature (°C),ASC tube jacket temperature (°C),LED temperature (°C),Box temperature (°C),Sample RH (%),Span deviation,Mass concentration (μg/m³),Mass concentration (μg/m³),Mass concentration (μg/m³)
DateTimeUTC,F1_M11,P_M11,Q1_M11,Q2_M11,T1_M11,T2_M11,T3_M11,T4_M11,T5_M11,U1_M11,ZSPAN_M11,X0_M11,X2_M11,X1_M11
2021-11-05 04:00:00,,0824.7,5.00,0.00,30.0,29.0,00.0,39.2,31.7,11.0,0000.0,0007.92,0002.46,0001.90
2021-11-05 04:01:00,,0824.5,5.00,0.00,30.0,29.0,00.0,39.2,31.7,10.9,0000.0,0007.59,0002.40,0001.88
2021-11-05 04:02:00,,0824.6,5.00,0.00,30.0,29.0,00.0,39.2,31.7,10.9,0000.0,0007.62,0002.38,0001.87
2021-11-05 04:03:00,,0824.6,5.00,0.00,30.0,29.0,00.0,39.2,31.7,11.2,0000.0,0006.99,0002.38,0001.86
2021-11-05 04:04:00,,0824.6,5.01,0.00,30.0,29.0,00.0,39.1,31.7,11.0,0000.0,0006.72,0002.38,0001.86
2021-11-05 04:05:00,,0824.6,4.99,0.00,30.0,29.0,00.0,39.1,31.7,11.0,0000.0,0006.72,0002.37,0001.84
2021-11-05 04:06:00,,0824.6,5.00,0.00,30.0,29.0,00.0,39.1,31.7,11.1,0000.0,0005.71,0002.32,0001.84
2021-11-05 04:07:00,,0824.7,4.99,0.00,30.0,29.0,00.0,39.1,31.7,11.4,0000.0,0005.13,0002.31,0001.83
2021-11-05 04:08:00,,0824.6,5.01,0.00,30.0,29.0,00.0,39.1,31.7,10.9,0000.0,0004.92,0002.32,0001.82
2021-11-05 04:09:00,,0824.6,5.00,0.00,30.0,29.0,00.0,39.1,31.7,10.8,0000.0,0005.36,0002.29,0001.80
2021-11-05 04:10:00,,0824.7,5.00,0.00,30.0,29.0,00.0,39.1,31.7,11.0,0000.0,0005.22,0002.27,0001.79
2021-11-05 04:11:00,,0824.6,5.01,0.00,30.0,29.0,00.0,39.1,31.7,10.8,0000.0,0004.31,0002.26,0001.77
2021-11-05 04:12:00,,0824.7,4.99,0.00,30.0,29.0,00.0,39.1,31.7,10.8,0000.0,0004.22,0002.23,0001.77
2021-11-05 04:13:00,,0824.7,5.00,0.00,30.0,29.0,00.0,39.1,31.7,10.7,0000.0,0003.95,0002.20,0001.76
2021-11-05 04:14:00,,0824.6,4.99,0.00,30.0,29.0,00.0,39.1,31.7,11.0,0000.0,0004.05,0002.16,0001.73
2021-11-05 04:15:00,,0824.6,5.00,0.00,30.0,29.0,00.0,39.1,31.7,10.9,0000.0,0004.73,0002.18,0001.71
2021-11-05 04:16:00,,0824.6,5.00,0.00,30.0,29.0,00.0,39.1,31.7,10.8,0000.0,0005.30,0002.15,0001.71
2021-11-05 04:17:00,,0824.7,4.99,0.00,30.0,29.0,00.0,39.1,31.6,10.6,0000.0,0005.15,0002.09,0001.68
2021-11-05 04:18:00,,0824.6,5.00,0.00,30.0,29.0,00.0,39.1,31.6,10.7,0000.0,0005.13,0002.05,0001.67
2021-11-05 04:19:00,,0824.6,4.99,0.00,30.0,29.0,00.0,39.1,31.6,10.9,0000.0,0005.66,0002.02,0001.65
2021-11-05 04:20:00,,0824.6,4.99,0.00,29.9,29.0,00.0,39.1,31.6,11.2,0000.0,0005.15,0002.00,0001.65
2021-11-05 04:21:00,,0824.6,5.00,0.00,29.9,29.0,00.0,39.1,31.6,10.8,0000.0,0004.95,0001.96,0001.65
2021-11-05 04:22:00,,0824.6,4.99,0.00,29.9,29.0,00.0,39.1,31.6,10.7,0000.0,0004.94,0001.94,0001.63
2021-11-05 04:23:00,,0824.6,5.02,0.00,29.9,29.0,00.0,39.0,31.6,10.5,0000.0,0004.93,0001.92,0001.60
2021-11-05 04:24:00,,0824.6,5.00,0.00,29.9,28.9,00.0,39.0,31.5,10.6,0000.0,0006.28,0001.92,0001.58
2021-11-05 04:25:00,,0824.5,5.00,0.00,29.9,28.9,00.0,39.0,31.6,10.5,0000.0,0005.96,0001.87,0001.57
2021-11-05 04:26:00,,0824.5,4.99,0.00,29.9,28.9,00.0,39.0,31.6,10.4,0000.0,0005.60,0001.83,0001.55
2021-11-05 04:27:00,,0824.5,5.00,0.00,29.9,29.0,00.0,39.0,31.6,10.6,0000.0,0004.98,0001.82,0001.54
2021-11-05 04:28:00,,0824.5,5.00,0.00,29.9,28.9,00.0,39.0,31.6,10.6,0000.0,0005.75,0001.82,0001.53
2021-11-05 04:29:00,,0824.5,5.00,0.00,29.9,28.9,00.0,39.0,31.6,10.4,0000.0,0006.79,0001.81,0001.52
2021-11-05 04:30:00,,0824.5,5.01,0.00,29.9,28.9,00.0,39.0,31.6,10.4,0000.0,0006.17,0001.79,0001.49
2021-11-05 04:31:00,,0824.4,5.00,0.00,29.9,28.9,00.0,39.0,31.6,10.4,0000.0,0006.88,0001.76,0001.46
2021-11-05 04:32:00,,0824.5,4.99,0.00,29.9,28.9,00.0,39.0,31.6,10.3,0000.0,0007.74,0001.72,0001.43
2021-11-05 04:33:00,,0824.5,5.00,0.00,29.9,28.9,00.0,39.0,31.6,10.3,0000.0,0007.96,0001.70,0001.42
2021-11-05 04:34:00,,0824.4,5.01,0.00,29.9,28.9,00.0,39.0,31.6,10.1,0000.0,0008.39,0001.71,0001.42
2021-11-05 04:35:00,,0824.5,5.00,0.00,29.9,28.9,00.0,39.0,31.6,10.2,0000.0,0007.74,0001.69,0001.41
2021-11-05 04:36:00,,0824.7,5.00,0.00,29.9,29.0,00.0,39.0,31.6,10.3,0000.0,0007.99,0001.71,0001.40
2021-11-05 04:37:00,,0824.5,5.00,0.00,29.9,29.0,00.0,39.0,31.6,10.3,0000.0,0008.13,0001.70,0001.39
2021-11-05 04:38:00,,0824.4,5.00,0.00,29.9,29.0,00.0,39.0,31.6,10.2,0000.0,0007.80,0001.65,0001.37
2021-11-05 04:39:00,,0824.4,4.99,0.00,29.9,28.9,00.0,39.0,31.6,10.2,0000.0,0007.12,0001.64,0001.36
2021-11-05 04:40:00,,0824.4,5.00,0.00,29.9,28.9,00.0,39.0,31.6,09.9,0000.0,0006.57,0001.61,0001.33
2021-11-05 04:41:00,,0824.5,5.00,0.00,29.8,28.9,00.0,39.0,31.5,09.6,0000.0,0007.35,0001.54,0001.31
2021-11-05 04:42:00,,0824.4,5.00,0.00,29.8,28.9,00.0,39.0,31.5,09.4,0000.0,0006.27,0001.46,0001.27
2021-11-05 04:43:00,,0824.4,4.99,0.00,29.8,28.9,00.0,38.9,31.5,09.3,0000.0,0005.13,0001.41,0001.22
2021-11-05 04:44:00,,0824.4,5.01,0.00,29.8,28.8,00.0,38.9,31.5,09.4,0000.0,0004.62,0001.36,0001.17
2021-11-05 04:45:00,,0824.4,5.00,0.00,29.8,28.8,00.0,38.9,31.5,09.4,0000.0,0003.79,0001.29,0001.12
2021-11-05 04:46:00,,0824.4,4.99,0.00,29.8,28.8,00.0,38.9,31.5,09.4,0000.0,0003.52,0001.23,0001.07
2021-11-05 04:47:00,,0824.4,4.99,0.00,29.7,28.7,00.0,38.9,31.4,09.4,0000.0,0003.03,0001.17,0001.02
2021-11-05 04:48:00,,0824.4,5.01,0.00,29.7,28.7,00.0,38.9,31.4,09.5,0000.0,0002.70,0001.12,0000.98
2021-11-05 04:49:00,,0824.4,4.99,0.00,29.7,28.7,00.0,38.9,31.3,09.6,0000.0,0002.65,0001.09,0000.95
2021-11-05 04:50:00,,0824.4,4.99,0.00,29.7,28.7,00.0,38.9,31.3,09.7,0000.0,0002.58,0001.05,0000.91
2021-11-05 04:51:00,,0824.4,5.00,0.00,29.6,28.7,00.0,38.8,31.3,09.6,0000.0,0002.20,0001.05,0000.88
2021-11-05 04:52:00,,0824.3,5.01,0.00,29.6,28.7,00.0,38.8,31.3,09.6,0000.0,0001.40,0001.06,0000.87
2021-11-05 04:53:00,,0824.3,5.00,0.00,29.6,28.7,00.0,38.8,31.3,09.6,0000.0,0001.47,0001.08,0000.88
2021-11-05 04:54:00,,0824.3,5.00,0.00,29.6,28.7,00.0,38.8,31.4,09.7,0000.0,0001.49,0001.10,0000.89
2021-11-05 04:55:00,,0824.3,5.00,0.00,29.6,28.7,00.0,38.8,31.3,09.7,0000.0,0001.46,0001.09,0000.89
2021-11-05 04:56:00,,0824.3,5.00,0.00,29.6,28.7,00.0,38.8,31.3,09.7,0000.0,0001.44,0001.09,0000.89
2021-11-05 04:57:00,,0824.2,4.99,0.00,29.6,28.7,00.0,38.8,31.3,09.7,0000.0,0001.45,0001.10,0000.90
2021-11-05 04:58:00,,0824.5,5.01,0.00,29.6,28.6,00.0,38.8,31.2,09.7,0000.0,0001.52,0001.11,0000.91
2021-11-05 04:59:00,,0824.2,4.99,0.00,29.5,28.6,00.0,38.7,31.2,09.7,0000.0,0001.59,0001.11,0000.91
